Regional Weather Roundup
Issued by NWS

Home | Current Version | Previous Version | Text Only | Print | Product List | Glossary Off
Versions: 1 2 3 4 5 6 7 8 9 10 11 12 13 14 15 16 17 18 19 20 21 22 23 24 25 26 27 28 29 30 31 32 33 34 35 36 37 38 39 40 41 42 43 44 45 46 47 48 49 50

000
ASUS45 KSLC 301810
RWRUT

UTAH REGIONAL WEATHER ROUNDUP
NATIONAL WEATHER SERVICE SALT LAKE CITY UT
1200 PM MDT SAT MAY 30 2015

UTZ001>011-023>025-301900-

NORTHERN UTAH

CITY           SKY/WX    TMP DP  RH WIND       PRES   REMARKS
BRIGHAM CITY   SUNNY     71  45  38 CALM      30.12F
HILL AFB       MOSUNNY   75  39  27 SW13      30.13F
LOGAN          SUNNY     67  49  52 CALM      30.12F
OGDEN          MOSUNNY   76  43  30 SE9       30.12S
PROVO AIRPORT  PTSUNNY   72  45  37 W5        30.15F
SALT LAKE CITY PTSUNNY   78  42  27 S15       30.09F
VERNAL         SUNNY     69  46  43 S6        30.23F
WENDOVER       SUNNY     72  46  40 E7        30.10S
HEBER CITY     MOSUNNY   68  41  37 CALM      30.19F
WEST JORDAN    SUNNY     73  45  35 S12G17    30.13S

$$

UTZ012>022-026-027-301900-

SOUTHERN/CENTRAL UTAH

CITY           SKY/WX    TMP DP  RH WIND       PRES   REMARKS
BLANDING       SUNNY     74  33  22 SE7       30.34S
BRYCE CANYON   MOSUNNY   68  40  35 S9        30.36S
CEDAR CITY     SUNNY     79  38  22 SW18G24   30.19S
DELTA          PTSUNNY   76  42  30 S7        30.14F
HANKSVILLE     SUNNY     77  34  20 S3        30.20S
MILFORD        SUNNY     78  47  33 S12       30.16R
MOAB/CYNLANDS  SUNNY     77  37  23 CALM      30.17F
PRICE          MOSUNNY   71  37  28 SE7       30.26S
ST GEORGE      PTCLDY    84  43  23 NW7       30.06F
KANAB          MOSUNNY   81  37  21 SE3       30.21F

$$

REGIONAL REPORTS     COLORADO/ARIZONA

CITY           SKY/WX    TMP DP  RH WIND       PRES   REMARKS
CRAIG, CO      SUNNY     67  41  38 MISG      30.28F
GRAND JUNCTION SUNNY     72  39  30 SE8       30.21F
RIFLE          SUNNY     68  38  33 VRB5      30.26F
MONTROSE       SUNNY     72  35  25 NW5       30.29F
CORTEZ         SUNNY     75  31  19 SW10      30.27S
PAGE, AZ       SUNNY     81  41  24 NE6       30.17F
GRAND CANYON   MOSUNNY   75  32  20 VRB7      30.29F
KINGMAN        SUNNY     91  16   6 SW10      30.08S
FLAGSTAFF      MOSUNNY   75  29  18 NE8       30.32F

$$

REGIONAL REPORTS    NEVADA/IDAHO/WYOMING

CITY           SKY/WX    TMP DP  RH WIND       PRES   REMARKS
LAS VEGAS, NV  MOSUNNY   92  26   9 SE6       29.95S
ELY            SUNNY     76  25  15 S12G25    30.20S
ELKO           MOSUNNY   77  47  34 W6        30.08F
POCATELLO, ID  SUNNY     78  42  27 SE9       30.07F
BURLEY         SUNNY     79  49  34 S15       30.01F
EVANSTON, WY   SUNNY     67  40  37 SW13G20   30.27S
ROCK SPRINGS   SUNNY     65  40  39 MISG      30.26F
KEMMERER       SUNNY     64  41  42 S6        30.28F

$$


USA.gov is the U.S. government's official web portal to all federal, state and local government web resources and services.